Home   Weather   Hommersåk   Past weeks

Flag for Norway Past Weather in Hommersåk, Norway — Yesterday and Last 2 Weeks

Now
46 °F

Partly cloudy.


Feels Like: 41 °F
Forecast: 45 / 46 °F
Wind: 10 mph from South

Location: Stavanger / Sola

Current Time: Dec 9, 2016 at 8:42:39 pm

Latest Report: Dec 9, 2016 at 7:50 pm


Visibility: 2 mi

Pressure: 29.83 "Hg

Humidity: 93%

Dew Point: 45 °F

Location of HommersåkLocation

Past Weather in Hommersåk — Graph

°F

Hommersåk Temperature Yesterday

Maximum temperature yesterday: 50 °F (at 1:50 am)
Minimum temperature yesterday: 41 °F (at 8:20 pm)
Average temperature yesterday: 47 °F

High & Low Weather Summary for the Past Weeks

 TemperatureHumidityPressure
High50 °F (Dec 8, 1:50 am)100% (Nov 25, 8:50 pm)30.51 "Hg (Nov 25, 8:50 pm)
Low25 °F (Nov 28, 4:50 am)61% (Nov 26, 3:50 pm)29.74 "Hg (Dec 8, 12:50 am)
Average41 °F86%30.14 "Hg
* Reported Nov 24 7:20 pm — Dec 9 7:20 pm, Hommersåk, Weather by CustomWeather, © 2016

Note: Actual official high and low records may vary slightly from our data, if they occured in-between our weather recording intervals... More about our weather records

Advertising

Hommersåk Weather History for the Previous 24 Hours

Scroll right to see more
 ConditionsComfort  
Time TempWeatherWind HumidityBarometerVisibility
7:20 pm
Fri, Dec 9
46 °FDrizzle. Overcast.12 mph93%29.83 "Hg2 mi
6:50 pm45 °FDrizzle. Overcast.13 mph100%29.86 "Hg1 mi
6:20 pm45 °FPartly cloudy.13 mph100%29.86 "Hg2 mi
5:50 pm45 °FPartly cloudy.9 mph100%29.89 "Hg2 mi
5:20 pm45 °FPartly cloudy.9 mph93%29.89 "Hg2 mi
4:50 pm45 °FDrizzle. Fog.9 mph93%29.92 "Hg3 mi
4:20 pm45 °FDrizzle. Fog.7 mph93%29.92 "Hg3 mi
3:50 pm45 °FPassing clouds.7 mph100%29.95 "Hg4 mi
3:20 pm45 °FPartly sunny.8 mph100%29.95 "Hg4 mi
2:50 pm46 °FMostly cloudy.7 mph93%29.95 "Hg4 mi
2:20 pm45 °FDrizzle. Broken clouds.5 mph100%29.95 "Hg5 mi
1:50 pm46 °FPartly sunny.6 mph93%29.95 "Hg5 mi
1:20 pm46 °FPartly sunny.5 mph93%29.95 "Hg5 mi
12:50 pm46 °FPartly sunny.5 mph93%29.98 "Hg5 mi
12:20 pm46 °FPartly sunny.3 mph100%29.98 "Hg6 mi
11:50 am46 °FPartly sunny.2 mph93%29.98 "Hg6 mi
11:20 am46 °FPartly sunny.2 mph93%29.98 "Hg5 mi
10:50 am46 °FPartly sunny.2 mph93%29.98 "Hg5 mi
10:20 am46 °FPartly sunny.1 mph93%30.01 "Hg5 mi
9:50 am46 °FDrizzle. Broken clouds.3 mph93%30.01 "Hg5 mi
9:20 am46 °FDrizzle. Broken clouds.6 mph93%29.98 "Hg4 mi
8:50 am46 °FDrizzle. Fog.8 mph93%29.98 "Hg3 mi
8:20 am46 °FDrizzle. Dense fog.7 mph93%29.98 "Hg2 mi
7:50 am46 °FDrizzle. Dense fog.3 mph93%29.98 "Hg2 mi
7:20 am46 °FDrizzle. Fog.10 mph93%29.98 "Hg2 mi
6:50 am46 °FPartly cloudy.8 mph93%29.98 "Hg5 mi
6:20 am46 °FPartly cloudy.8 mph93%29.98 "Hg6 mi
5:50 am46 °FPartly cloudy.9 mph93%29.98 "HgN/A
5:20 am46 °FPassing clouds.9 mph93%29.98 "HgN/A
3:50 am46 °FPassing clouds.12 mph93%29.98 "HgN/A
2:50 am46 °FPartly cloudy.9 mph93%29.98 "HgN/A
1:50 am46 °FPassing clouds.7 mph93%29.98 "HgN/A
12:50 am45 °FPassing clouds.1 mph93%29.98 "HgN/A
12:20 am43 °FPartly cloudy.3 mph100%29.98 "HgN/A
11:50 pm
Thu, Dec 8
45 °FPartly cloudy.2 mph100%30.01 "HgN/A
11:20 pm43 °FPartly cloudy.3 mph100%30.01 "HgN/A
10:50 pm43 °FPartly cloudy.3 mph100%30.01 "HgN/A
10:20 pm43 °FPassing clouds.6 mph100%29.98 "HgN/A
9:50 pm43 °FPassing clouds.2 mph93%29.98 "HgN/A
9:20 pm43 °FPassing clouds.2 mph93%29.98 "HgN/A
8:50 pm41 °FPassing clouds.2 mph93%29.98 "Hg6 mi
8:20 pm41 °FPassing clouds.2 mph100%29.95 "Hg6 mi
Weather by CustomWeather, © 2016

See weather overviewHow to use our weather pages